Simultaneous Nadir Overpasses (SNOs) Predictions

Prediction of SNOs between GOES-16 and AQUA Satellite Orbit:

Table of predicted SNOs for the next 14.0 days since TLE Epoch: 3/4/2017
Index Date Time (GOES-16) GOES-16 Lat,Lon AQUA Lat,Lon Distance(km) Time Diff (sec)
1 03/05/2017 19:25:03 -0.00, -89.51 0.54, -87.08 276.61 80
2 03/06/2017 07:46:18 0.00, -89.52 0.59, -92.23 308.84 80
3 03/08/2017 07:31:28 -0.00, -89.54 -0.04, -89.28 29.44 80
4 03/10/2017 07:19:18 -0.00, -89.57 -0.68, -86.33 368.27 80
5 03/10/2017 19:40:43 0.01, -89.57 -0.41, -91.52 221.80 80
6 03/12/2017 19:31:13 0.01, -89.61 0.24, -88.57 118.08 80
7 03/13/2017 07:52:29 -0.01, -89.63 0.84, -93.73 466.28 80
8 03/14/2017 19:19:03 0.01, -89.65 0.88, -85.62 458.50 80
9 03/15/2017 07:40:18 -0.01, -89.67 0.26, -90.77 125.91 80
10 03/17/2017 07:25:28 -0.01, -89.71 -0.39, -87.82 214.79 80
11 03/17/2017 19:46:52 0.01, -89.71 -0.68, -93.02 375.44 80




NCC Satellite Simultaneous Nadir Overpasses (SNOs) Prediction Service
